User: anonymous   Login
Location: Plum
(40.5000°N, 79.7500°W)
Time: 22:23:45
(UTC-05:00)
Language:

Cosmos 1825 - Orbit

View from above orbital plane
View from above orbital plane
View from above satellite
View from above satellite

Ground track
Ground track

The orbit data is extracted from the following two-line orbital elements,

1 17566U 87024A   14325.97343088  .00008263  00000-0  45797-3 0  1517
2 17566 082.5036 137.9024 0003421 217.6136 142.4856 15.13659264511608
Epoch (UTC): 21 November 2014 23:21:44
Eccentricity: 0.0003421
inclination: 82.5036°
perigee height: 522 km
apogee height: 527 km
right ascension of ascending node: 137.9024°
argument of perigee: 217.6136°
revolutions per day: 15.13659264
mean anomaly at epoch: 142.4856°
orbit number at epoch: 51160

The dashed part of the orbit path shows where the satellite is in the earth's shadow,  

DLR